Flag for Paraguay Weather past 2 weeks in Asuncion, Paraguay

Now
84 °F

Partly sunny.


Feels Like: 92 °F
Forecast: 77 / 92 °F
Wind: 8 mph from Northeast

Location: Asuncion / Aeropuerto

Current Time: Mar 1, 2015 at 10:27:56 AM

Latest Report: Mar 1, 2015 at 10:00 AM


Visibility: N/A

Pressure: 29.92 "Hg

Humidity: 74%

Dew point: 75 °F

Location of AsuncionLocation

Historic Weather in Asuncion — Graph

°F

Asuncion temperature yesterday

Maximum temperature yesterday: 90 °F (at 3:00 PM)
Minimum temperature yesterday: 73 °F (at 2:00 AM)
Average temperature yesterday: 80 °F

Past Weeks' High & Low Weather Summary

 TemperatureHumidityPressure
High95 °F (Feb 23, 2:00 PM)100% (Feb 14, 3:00 PM)30.01 "Hg (Feb 14, 3:00 PM)
Low68 °F (Feb 15, 7:00 AM)46% (Feb 18, 6:00 PM)29.56 "Hg (Feb 18, 6:00 PM)
Average80 °F80%29.85 "Hg
* Reported Feb 14 9:00 AM — Mar 1 9:30 AM, Asuncion, Weather by CustomWeather, © 2015

Note: Actual official high and low records may vary slightly from our data, if they occured in-between our weather recording intervals... More about our weather records

Advertising

Asuncion weather history for previous 24 hours

 ConditionsComfort  
Time TempWeatherWind HumidityBarometerVisibility
9:30 AM
Sun, Mar 1
82 °FPartly sunny.6 mph74%29.92 "HgN/A
9:00 AM82 °FPartly sunny.6 mph79%29.92 "HgN/A
8:30 AM81 °FSunny.5 mph79%29.89 "Hg10 mi
8:00 AM82 °FSunny.No wind79%29.89 "Hg10 mi
7:00 AM77 °FSunny.No wind94%29.86 "Hg10 mi
6:00 AM77 °FClear.2 mph89%29.86 "Hg10 mi
5:00 AM77 °FClear.No wind89%29.83 "Hg10 mi
4:00 AM77 °FClear.No wind94%29.83 "Hg10 mi
3:00 AM77 °FClear.No wind94%29.83 "Hg10 mi
2:00 AM77 °FClear.3 mph89%29.86 "Hg10 mi
1:00 AM79 °FClear.2 mph84%29.86 "Hg10 mi
12:00 AM79 °FClear.No wind89%29.86 "Hg10 mi
11:00 PM
Sat, Feb 28
81 °FClear.5 mph84%29.86 "Hg10 mi
10:00 PM81 °FClear.2 mph89%29.86 "Hg10 mi
9:00 PM81 °FClear.No wind89%29.86 "Hg10 mi
8:00 PM82 °FPassing clouds.No wind84%29.86 "HgN/A
7:00 PM88 °FPartly sunny.No wind62%29.83 "HgN/A
6:00 PM88 °FScattered clouds.5 mph66%29.83 "HgN/A
5:00 PM90 °FScattered clouds.2 mph63%29.83 "HgN/A
4:00 PM90 °FScattered clouds.3 mph63%29.83 "HgN/A
3:00 PM90 °FBroken clouds.5 mph59%29.89 "HgN/A
2:00 PM88 °FPartly sunny.3 mph66%29.92 "HgN/A
1:00 PM86 °FPartly sunny.No wind66%29.92 "HgN/A
12:00 PM84 °FPartly sunny.5 mph70%29.95 "HgN/A
11:00 AM81 °FPartly sunny.5 mph84%29.95 "HgN/A
10:30 AM81 °FPartly sunny.5 mph84%29.95 "HgN/A
10:00 AM79 °FPartly sunny.2 mph84%29.92 "HgN/A
Weather by CustomWeather, © 2015

See weather overviewHow to use our weather pages